Flag for U.S.A. Weather past 2 weeks in Talkeetna, Alaska, U.S.A.

Now
56 °F

Passing clouds.


Feels Like: 56 °F
Forecast: 53 / 71 °F
Wind: No wind

Location: Talkeetna Weather Reporting Station

Current Time: Aug 1, 2015 at 12:47:56 AM

Latest Report: Jul 31, 2015 at 11:53 PM


Visibility: 10 mi

Pressure: 30.00 "Hg

Humidity: 90%

Dew point: 53 °F

Location of TalkeetnaLocation

Historic Weather in Talkeetna — Graph

°F

Talkeetna temperature yesterday

Maximum temperature yesterday: 74 °F (at 3:53 PM)
Minimum temperature yesterday: 48 °F (at 5:53 AM)
Average temperature yesterday: 62 °F

Past Weeks' High & Low Weather Summary

 TemperatureHumidityPressure
High79 °F (Jul 24, 4:53 PM)100% (Jul 17, 3:53 AM)30.19 "Hg (Jul 17, 3:53 AM)
Low44 °F (Jul 19, 5:53 AM)31% (Jul 20, 6:53 PM)29.55 "Hg (Jul 22, 9:53 PM)
Average60 °F75%29.86 "Hg
* Reported Jul 16 10:53 PM — Jul 31 10:53 PM, Talkeetna, Weather by CustomWeather, © 2015

Note: Actual official high and low records may vary slightly from our data, if they occured in-between our weather recording intervals... More about our weather records

Advertising

Talkeetna weather history for previous 24 hours

 ConditionsComfort  
Time TempWeatherWind HumidityBarometerVisibility
10:53 PM
Fri, Jul 31
61 °FSunny.No wind81%29.99 "Hg10 mi
9:53 PM69 °FSunny.No wind66%29.98 "Hg10 mi
8:53 PM74 °FSunny.No wind45%29.97 "Hg10 mi
7:53 PM73 °FSunny.No wind43%29.98 "Hg10 mi
6:53 PM71 °FPassing clouds.No wind51%29.99 "Hg10 mi
5:53 PM74 °FSunny.6 mph38%29.99 "Hg10 mi
4:53 PM73 °FSunny.5 mph41%30.00 "Hg10 mi
3:53 PM74 °FPartly sunny.6 mph41%30.01 "Hg10 mi
2:53 PM73 °FPassing clouds.5 mph43%30.02 "Hg10 mi
1:53 PM71 °FSunny.3 mph51%30.03 "Hg10 mi
12:53 PM66 °FScattered clouds.No wind63%30.05 "Hg10 mi
11:53 AM61 °FPartly sunny.3 mph72%30.06 "Hg10 mi
10:53 AM58 °FPartly sunny.3 mph81%30.07 "Hg10 mi
9:53 AM56 °FPartly sunny.3 mph87%30.08 "Hg10 mi
8:53 AM54 °FPartly sunny.No wind90%30.09 "Hg10 mi
7:53 AM51 °FOvercast.No wind92%30.09 "Hg10 mi
6:53 AM48 °FLow clouds.No wind93%30.09 "Hg10 mi
5:53 AM48 °FPassing clouds.No wind93%30.09 "Hg10 mi
4:53 AM49 °FClear.No wind93%30.08 "Hg10 mi
3:53 AM50 °FClear.No wind93%30.08 "Hg10 mi
2:53 AM51 °FClear.No wind92%30.07 "Hg10 mi
1:53 AM54 °FClear.No wind93%30.06 "Hg10 mi
12:53 AM56 °FPassing clouds.No wind90%30.06 "Hg10 mi
Weather by CustomWeather, © 2015

See weather overviewHow to use our weather pages